RYR6QT EBCI-LIPH

Flight info

Callsign RYR6QT
Flight time 1h 13m
Altitude 37000
Route RITAX M624 DIK M150 PITES DCT KRH DCT BATUB M738 NATAG/N0391F190 M738 ADOSA
Aircraft B738/M-SDE2E3FGHIRWXY/LB1

Departure

Time 2026-04-23 14:02
Airport Brussels South Charleroi Airport (EBCI)

Arrival

Time 2026-04-23 15:15
Airport Treviso Airport (LIPH)
Time Latitude Longitude Altitude Speed Heading
2026-04-23 13:35 50.46975 4.47462 622 ft 0 kts 335°
2026-04-23 13:50 50.46969 4.47466 622 ft 2 kts 332°
2026-04-23 13:51 50.46955 4.47480 627 ft 2 kts 322°
2026-04-23 13:51 50.46943 4.47498 626 ft 2 kts 302°
2026-04-23 13:51 50.46937 4.47522 627 ft 2 kts 269°
2026-04-23 13:51 50.46940 4.47547 622 ft 2 kts 249°
2026-04-23 13:52 50.46943 4.47556 623 ft 0 kts 246°
2026-04-23 13:56 50.46939 4.47542 612 ft 5 kts 246°
2026-04-23 13:56 50.46908 4.47436 621 ft 16 kts 245°
2026-04-23 13:56 50.46833 4.47333 612 ft 16 kts 163°
2026-04-23 13:57 50.46745 4.47276 616 ft 16 kts 246°
2026-04-23 13:57 50.46701 4.47123 612 ft 15 kts 245°
2026-04-23 13:57 50.46667 4.47008 622 ft 7 kts 245°
2026-04-23 13:57 50.46663 4.46994 617 ft 0 kts 245°
2026-04-23 13:58 50.46657 4.46972 614 ft 7 kts 245°
2026-04-23 13:58 50.46619 4.46842 621 ft 19 kts 245°
2026-04-23 13:58 50.46555 4.46623 614 ft 25 kts 245°
2026-04-23 13:59 50.46482 4.46369 621 ft 25 kts 245°
2026-04-23 13:59 50.46412 4.46128 615 ft 23 kts 245°
2026-04-23 13:59 50.46347 4.45904 622 ft 23 kts 245°
2026-04-23 13:59 50.46282 4.45682 619 ft 22 kts 245°
2026-04-23 14:00 50.46241 4.45538 615 ft 22 kts 245°
2026-04-23 14:00 50.46147 4.45217 618 ft 26 kts 245°
2026-04-23 14:00 50.46073 4.44965 622 ft 25 kts 245°
2026-04-23 14:00 50.46001 4.44779 612 ft 17 kts 210°
2026-04-23 14:01 50.45893 4.44827 626 ft 17 kts 129°
2026-04-23 14:01 50.45922 4.45064 625 ft 42 kts 65°
2026-04-23 14:01 50.46149 4.45847 615 ft 113 kts 65°
2026-04-23 14:01 50.46549 4.47235 739 ft 158 kts 64°
2026-04-23 14:02 50.47012 4.48852 1491 ft 167 kts 59°
2026-04-23 14:02 50.47894 4.50069 2260 ft 177 kts 24°
2026-04-23 14:02 50.49031 4.50937 2988 ft 188 kts 38°
2026-04-23 14:02 50.49863 4.52652 3338 ft 205 kts 58°
2026-04-23 14:03 50.50711 4.54503 3961 ft 209 kts 52°
2026-04-23 14:03 50.51624 4.56362 4407 ft 226 kts 53°
2026-04-23 14:03 50.52620 4.58469 4695 ft 252 kts 54°
2026-04-23 14:03 50.53674 4.60731 5495 ft 257 kts 53°
2026-04-23 14:04 50.54883 4.63235 6641 ft 255 kts 53°
2026-04-23 14:04 50.55976 4.65471 7433 ft 260 kts 52°
2026-04-23 14:04 50.57086 4.67677 8165 ft 266 kts 51°
2026-04-23 14:05 50.57953 4.70258 8888 ft 270 kts 79°
2026-04-23 14:05 50.57815 4.73213 9615 ft 281 kts 108°
2026-04-23 14:05 50.56823 4.75891 10453 ft 284 kts 120°
2026-04-23 14:05 50.55750 4.78565 10956 ft 299 kts 120°
2026-04-23 14:06 50.55008 4.80457 11055 ft 314 kts 119°
2026-04-23 14:06 50.53828 4.83489 11244 ft 337 kts 119°
2026-04-23 14:06 50.52577 4.86721 11438 ft 356 kts 119°
2026-04-23 14:06 50.51264 4.90126 11838 ft 368 kts 119°
2026-04-23 14:07 50.49927 4.93589 12440 ft 372 kts 120°
2026-04-23 14:07 50.48497 4.97283 13248 ft 375 kts 120°
2026-04-23 14:07 50.47127 5.00826 13825 ft 383 kts 119°
2026-04-23 14:08 50.45743 5.04413 14483 ft 386 kts 119°
2026-04-23 14:08 50.44343 5.08033 15187 ft 388 kts 120°
2026-04-23 14:08 50.42946 5.11636 15879 ft 391 kts 120°
2026-04-23 14:08 50.41543 5.15249 16542 ft 394 kts 120°
2026-04-23 14:09 50.40108 5.18942 17201 ft 398 kts 120°
2026-04-23 14:09 50.38663 5.22656 17865 ft 401 kts 120°
2026-04-23 14:09 50.37201 5.26407 18515 ft 404 kts 120°
2026-04-23 14:09 50.35731 5.30173 19095 ft 407 kts 121°
2026-04-23 14:10 50.34247 5.33975 19691 ft 409 kts 121°
2026-04-23 14:10 50.32761 5.37776 20306 ft 410 kts 121°
2026-04-23 14:10 50.31270 5.41585 20876 ft 412 kts 121°
2026-04-23 14:10 50.29770 5.45409 21397 ft 415 kts 121°
2026-04-23 14:11 50.28254 5.49265 21906 ft 417 kts 121°
2026-04-23 14:11 50.26728 5.53140 22412 ft 420 kts 121°
2026-04-23 14:11 50.25189 5.57048 22913 ft 422 kts 121°
2026-04-23 14:11 50.23644 5.60965 23404 ft 425 kts 121°
2026-04-23 14:12 50.22086 5.64907 23886 ft 428 kts 121°
2026-04-23 14:12 50.20519 5.68866 24286 ft 430 kts 121°
2026-04-23 14:12 50.18958 5.72804 24702 ft 432 kts 121°
2026-04-23 14:12 50.17374 5.76794 25148 ft 432 kts 121°
2026-04-23 14:13 50.15788 5.80781 25586 ft 433 kts 121°
2026-04-23 14:13 50.14194 5.84783 25972 ft 435 kts 121°
2026-04-23 14:13 50.12597 5.88789 26336 ft 436 kts 121°
2026-04-23 14:13 50.11006 5.92770 26727 ft 437 kts 121°
2026-04-23 14:14 50.09396 5.96795 27104 ft 439 kts 121°
2026-04-23 14:14 50.07774 6.00842 27466 ft 440 kts 121°
2026-04-23 14:14 50.06146 6.04900 27815 ft 442 kts 121°
2026-04-23 14:14 50.04515 6.08957 28139 ft 443 kts 121°
2026-04-23 14:15 50.02878 6.13024 28486 ft 444 kts 121°
2026-04-23 14:15 50.01233 6.17105 28914 ft 444 kts 121°
2026-04-23 14:15 49.99599 6.21150 29448 ft 440 kts 121°
2026-04-23 14:15 49.97975 6.25164 30048 ft 436 kts 121°
2026-04-23 14:16 49.96367 6.29134 30553 ft 433 kts 121°
2026-04-23 14:16 49.94762 6.33091 30906 ft 432 kts 122°
2026-04-23 14:16 49.93179 6.36986 31203 ft 433 kts 121°
2026-04-23 14:16 49.91569 6.40945 31554 ft 432 kts 121°
2026-04-23 14:17 49.89969 6.44873 31950 ft 430 kts 121°
2026-04-23 14:17 49.88375 6.48778 32372 ft 428 kts 121°
2026-04-23 14:17 49.86786 6.52665 32739 ft 427 kts 121°
2026-04-23 14:17 49.85198 6.56545 33058 ft 426 kts 121°
2026-04-23 14:18 49.83607 6.60429 33395 ft 426 kts 121°
2026-04-23 14:18 49.82022 6.64288 33753 ft 424 kts 121°
2026-04-23 14:18 49.80437 6.68145 34103 ft 423 kts 121°
2026-04-23 14:18 49.78855 6.71986 34411 ft 423 kts 121°
2026-04-23 14:19 49.77276 6.75816 34666 ft 423 kts 121°
2026-04-23 14:19 49.75693 6.79651 34884 ft 423 kts 121°
2026-04-23 14:19 49.74102 6.83499 35125 ft 423 kts 121°
2026-04-23 14:19 49.72516 6.87329 35384 ft 423 kts 121°
2026-04-23 14:20 49.70928 6.91159 35638 ft 423 kts 121°
2026-04-23 14:20 49.69339 6.94984 35859 ft 423 kts 121°
2026-04-23 14:20 49.67768 6.98763 36070 ft 423 kts 121°
2026-04-23 14:20 49.66175 7.02587 36286 ft 423 kts 121°
2026-04-23 14:21 49.64578 7.06415 36512 ft 424 kts 122°
2026-04-23 14:21 49.62974 7.10256 36689 ft 425 kts 122°
2026-04-23 14:21 49.61373 7.14082 36910 ft 425 kts 122°
2026-04-23 14:21 49.59767 7.17915 37157 ft 424 kts 122°
2026-04-23 14:22 49.58167 7.21729 37347 ft 424 kts 122°
2026-04-23 14:22 49.56552 7.25575 37320 ft 428 kts 122°
2026-04-23 14:22 49.53316 7.33261 37314 ft 426 kts 122°
2026-04-23 14:23 49.50113 7.40845 37315 ft 424 kts 122°
2026-04-23 14:23 49.46892 7.48451 37312 ft 422 kts 122°
2026-04-23 14:24 49.43689 7.55995 37315 ft 421 kts 122°
2026-04-23 14:24 49.40478 7.63536 37310 ft 421 kts 122°
2026-04-23 14:25 49.37281 7.71022 37317 ft 422 kts 122°
2026-04-23 14:25 49.34055 7.78554 37325 ft 424 kts 122°
2026-04-23 14:26 49.30800 7.86133 37326 ft 426 kts 122°
2026-04-23 14:26 49.27532 7.93720 37328 ft 428 kts 122°
2026-04-23 14:27 49.24241 8.01340 37337 ft 429 kts 122°
2026-04-23 14:27 49.20961 8.08912 37333 ft 430 kts 122°
2026-04-23 14:28 49.17639 8.16559 37328 ft 431 kts 122°
2026-04-23 14:28 49.14316 8.24188 37328 ft 431 kts 122°
2026-04-23 14:29 49.10988 8.31805 37330 ft 431 kts 122°
2026-04-23 14:29 49.07652 8.39422 37322 ft 431 kts 122°
2026-04-23 14:30 49.04320 8.47011 37324 ft 430 kts 122°
2026-04-23 14:30 49.00978 8.54565 37319 ft 430 kts 124°
2026-04-23 14:31 48.96821 8.61081 37316 ft 436 kts 141°
2026-04-23 14:31 48.91781 8.66280 37324 ft 437 kts 143°
2026-04-23 14:32 48.86705 8.71375 37315 ft 437 kts 143°
2026-04-23 14:32 48.81645 8.76497 37323 ft 437 kts 143°
2026-04-23 14:33 48.76600 8.81632 37311 ft 437 kts 143°
2026-04-23 14:33 48.71580 8.86741 37306 ft 437 kts 143°
2026-04-23 14:34 48.66522 8.91878 37301 ft 438 kts 143°
2026-04-23 14:34 48.61457 8.97009 37306 ft 438 kts 143°
2026-04-23 14:35 48.56389 9.02128 37296 ft 438 kts 143°
2026-04-23 14:35 48.51337 9.07219 37302 ft 438 kts 143°
2026-04-23 14:36 48.46254 9.12329 37303 ft 439 kts 142°
2026-04-23 14:36 48.41163 9.17433 37308 ft 440 kts 143°
2026-04-23 14:37 48.36057 9.22542 37305 ft 441 kts 143°
2026-04-23 14:37 48.30940 9.27648 37303 ft 441 kts 143°
2026-04-23 14:38 48.25858 9.32707 37307 ft 442 kts 143°
2026-04-23 14:38 48.20718 9.37811 37302 ft 442 kts 143°
2026-04-23 14:39 48.15578 9.42904 37305 ft 443 kts 143°
2026-04-23 14:39 48.10439 9.47983 37297 ft 443 kts 143°
2026-04-23 14:40 48.05273 9.53079 37294 ft 443 kts 143°
2026-04-23 14:40 48.00163 9.58153 37295 ft 443 kts 141°
2026-04-23 14:41 47.95169 9.63540 37297 ft 443 kts 140°
2026-04-23 14:41 47.91010 9.68108 37293 ft 443 kts 140°
2026-04-23 14:42 47.85533 9.74060 37293 ft 443 kts 140°
2026-04-23 14:42 47.80533 9.79439 37297 ft 444 kts 140°
2026-04-23 14:43 47.75513 9.84817 37293 ft 444 kts 140°
2026-04-23 14:43 47.70498 9.90177 37290 ft 444 kts 140°
2026-04-23 14:44 47.65495 9.95513 37285 ft 445 kts 140°
2026-04-23 14:44 47.60460 10.00870 37288 ft 445 kts 140°
2026-04-23 14:45 47.55419 10.06221 37284 ft 446 kts 140°
2026-04-23 14:45 47.50375 10.11564 37283 ft 446 kts 140°
2026-04-23 14:46 47.45314 10.16912 37285 ft 447 kts 140°
2026-04-23 14:46 47.40091 10.21985 37289 ft 450 kts 145°
2026-04-23 14:47 47.34755 10.26753 37291 ft 451 kts 144°
2026-04-23 14:47 47.29388 10.31622 37280 ft 453 kts 144°
2026-04-23 14:48 47.24011 10.36470 37283 ft 453 kts 144°
2026-04-23 14:48 47.18629 10.41308 37271 ft 453 kts 144°
2026-04-23 14:49 47.13256 10.46133 37273 ft 452 kts 144°
2026-04-23 14:49 47.07922 10.50911 37263 ft 452 kts 145°
2026-04-23 14:50 47.02171 10.54698 37268 ft 458 kts 159°
2026-04-23 14:50 46.96046 10.57337 37256 ft 458 kts 160°
2026-04-23 14:51 46.89930 10.60026 37251 ft 458 kts 159°
2026-04-23 14:51 46.84861 10.62316 37255 ft 458 kts 159°
2026-04-23 14:52 46.78759 10.65057 37250 ft 459 kts 159°
2026-04-23 14:52 46.74684 10.66880 36646 ft 466 kts 159°
2026-04-23 14:52 46.72591 10.67810 36300 ft 463 kts 160°
2026-04-23 14:53 46.69475 10.69005 35728 ft 464 kts 162°
2026-04-23 14:53 46.66367 10.70041 35048 ft 466 kts 163°
2026-04-23 14:53 46.63180 10.71040 34403 ft 467 kts 163°
2026-04-23 14:53 46.59990 10.72030 33602 ft 469 kts 163°
2026-04-23 14:54 46.56802 10.73033 32841 ft 470 kts 163°
2026-04-23 14:54 46.53601 10.74055 32068 ft 471 kts 162°
2026-04-23 14:54 46.50397 10.75091 31284 ft 472 kts 162°
2026-04-23 14:54 46.47223 10.76123 30515 ft 473 kts 162°
2026-04-23 14:55 46.44004 10.77172 29583 ft 474 kts 163°
2026-04-23 14:55 46.40796 10.78217 28680 ft 474 kts 163°
2026-04-23 14:55 46.37562 10.79268 27860 ft 473 kts 163°
2026-04-23 14:55 46.34357 10.80305 27246 ft 468 kts 164°
2026-04-23 14:56 46.31194 10.81328 26588 ft 464 kts 164°
2026-04-23 14:56 46.28057 10.82342 25975 ft 460 kts 164°
2026-04-23 14:56 46.24943 10.83349 25351 ft 457 kts 164°
2026-04-23 14:56 46.21894 10.84332 24740 ft 454 kts 164°
2026-04-23 14:57 46.18798 10.85329 23859 ft 458 kts 165°
2026-04-23 14:57 46.15691 10.86327 23049 ft 457 kts 165°
2026-04-23 14:57 46.12600 10.87316 22366 ft 452 kts 165°
2026-04-23 14:57 46.09541 10.88293 21729 ft 447 kts 165°
2026-04-23 14:58 46.06511 10.89262 21101 ft 442 kts 165°
2026-04-23 14:58 46.03515 10.90218 20486 ft 438 kts 165°
2026-04-23 14:58 46.00559 10.91161 19875 ft 433 kts 165°
2026-04-23 14:58 45.97627 10.92097 19289 ft 429 kts 165°
2026-04-23 14:59 45.94724 10.93022 18689 ft 426 kts 165°
2026-04-23 14:59 45.91838 10.93942 17999 ft 423 kts 165°
2026-04-23 14:59 45.88977 10.94851 17363 ft 419 kts 165°
2026-04-23 14:59 45.86148 10.95750 16732 ft 414 kts 165°
2026-04-23 15:00 45.83353 10.96637 16168 ft 410 kts 165°
2026-04-23 15:00 45.80578 10.97516 15528 ft 408 kts 165°
2026-04-23 15:00 45.77837 10.98380 14854 ft 407 kts 165°
2026-04-23 15:00 45.75085 10.99245 14262 ft 404 kts 165°
2026-04-23 15:01 45.72346 11.00105 13643 ft 401 kts 165°
2026-04-23 15:01 45.69655 11.01064 13010 ft 394 kts 156°
2026-04-23 15:01 45.67339 11.03009 12476 ft 381 kts 136°
2026-04-23 15:01 45.65653 11.05853 11909 ft 371 kts 118°
2026-04-23 15:02 45.64607 11.09182 11313 ft 365 kts 103°
2026-04-23 15:02 45.64233 11.12678 11126 ft 348 kts 90°
2026-04-23 15:02 45.64171 11.16063 10947 ft 333 kts 87°
2026-04-23 15:02 45.64171 11.19306 10818 ft 321 kts 86°
2026-04-23 15:03 45.64176 11.22448 10661 ft 311 kts 87°
2026-04-23 15:03 45.64171 11.25491 10531 ft 302 kts 87°
2026-04-23 15:03 45.64155 11.28457 10405 ft 293 kts 87°
2026-04-23 15:03 45.64134 11.31325 10275 ft 285 kts 87°
2026-04-23 15:04 45.64110 11.34107 10139 ft 276 kts 88°
2026-04-23 15:04 45.64084 11.36810 9859 ft 275 kts 87°
2026-04-23 15:04 45.64056 11.39541 9556 ft 274 kts 87°
2026-04-23 15:04 45.64027 11.42263 9259 ft 273 kts 87°
2026-04-23 15:05 45.63999 11.44970 8953 ft 272 kts 87°
2026-04-23 15:05 45.63976 11.47669 8649 ft 272 kts 87°
2026-04-23 15:05 45.63953 11.50375 8349 ft 271 kts 87°
2026-04-23 15:05 45.63929 11.53062 8052 ft 271 kts 87°
2026-04-23 15:06 45.63904 11.55765 7770 ft 271 kts 87°
2026-04-23 15:06 45.63871 11.58479 7436 ft 274 kts 88°
2026-04-23 15:06 45.63828 11.61200 7135 ft 274 kts 88°
2026-04-23 15:06 45.63786 11.63924 6841 ft 274 kts 88°
2026-04-23 15:07 45.63578 11.66601 6513 ft 280 kts 106°
2026-04-23 15:07 45.62529 11.68957 6129 ft 285 kts 135°
2026-04-23 15:07 45.60983 11.70728 5854 ft 284 kts 143°
2026-04-23 15:07 45.59390 11.72390 5646 ft 280 kts 143°
2026-04-23 15:08 45.57853 11.74025 5567 ft 271 kts 142°
2026-04-23 15:08 45.56362 11.75642 5400 ft 266 kts 142°
2026-04-23 15:08 45.54946 11.77302 5201 ft 263 kts 129°
2026-04-23 15:09 45.54443 11.81975 4729 ft 248 kts 58°
2026-04-23 15:09 45.55254 11.83999 4636 ft 237 kts 63°
2026-04-23 15:09 45.55879 11.86168 4313 ft 237 kts 66°
2026-04-23 15:09 45.56485 11.88296 4159 ft 227 kts 66°
2026-04-23 15:10 45.56875 11.89682 3931 ft 227 kts 66°
2026-04-23 15:10 45.57651 11.92417 3585 ft 220 kts 68°
2026-04-23 15:10 45.58211 11.94442 3338 ft 216 kts 68°
2026-04-23 15:10 45.58751 11.96407 3188 ft 208 kts 68°
2026-04-23 15:11 45.59268 11.98328 2999 ft 203 kts 70°
2026-04-23 15:11 45.59726 12.00099 2843 ft 197 kts 69°
2026-04-23 15:11 45.60230 12.01965 2473 ft 204 kts 68°
2026-04-23 15:11 45.60377 12.02509 2393 ft 204 kts 69°
2026-04-23 15:12 45.60521 12.03051 2313 ft 205 kts 70°
2026-04-23 15:12 45.61021 12.04973 1968 ft 208 kts 69°
2026-04-23 15:12 45.61532 12.06886 1713 ft 202 kts 69°
2026-04-23 15:12 45.62017 12.08709 1453 ft 187 kts 69°
2026-04-23 15:13 45.62453 12.10371 1216 ft 172 kts 70°
2026-04-23 15:13 45.62867 12.11928 955 ft 163 kts 70°
2026-04-23 15:13 45.63261 12.13413 757 ft 160 kts 70°
2026-04-23 15:13 45.63656 12.14908 534 ft 159 kts 70°
2026-04-23 15:14 45.64058 12.16408 320 ft 163 kts 72°
2026-04-23 15:14 45.64458 12.17929 124 ft 164 kts 71°
2026-04-23 15:14 45.64843 12.19382 64 ft 139 kts 69°
2026-04-23 15:14 45.65107 12.20373 56 ft 77 kts 69°
2026-04-23 15:15 45.65203 12.20741 58 ft 17 kts 69°
2026-04-23 15:15 45.65284 12.20772 57 ft 14 kts 341°
2026-04-23 15:15 45.65357 12.20733 59 ft 8 kts 335°
2026-04-23 15:15 45.65376 12.20658 57 ft 10 kts 254°
2026-04-23 15:16 45.65348 12.20550 61 ft 12 kts 249°
2026-04-23 15:16 45.65345 12.20454 61 ft 9 kts 332°
2026-04-23 15:16 45.65379 12.20433 59 ft 0 kts 339°